SCP
0 0 0 0 0 0 0 0 0 0 0 0 0 0 0 0 0 0 0 0 0 0 0 0 0 0 0 0 0 0 0 0 0 0 0 0 0 0 0 0 0 0 0 0
0 0 0 0 0 0 0 0 0 0 0 0 0 0 0 0 0 0 0 0 0 0 0 0 0 0 0 0 0 0 0 0 0 0 0 0 0 0 0 0 0 0 0 0
0 0 0 0 0 0 0 0 0 0 0 0 0 0 0 0 0 0 0 0 0 0 0 0 0 0 0 0 0 0 0 0 0 0 0 0 0 0 0 0 0 0 0 0
0 0 0 0 0 0 0 0 0 0 0 0 0 0 0 0 0 0 0 0 0 0 0 0 0 0 0 0 0 0 0 0 0 0 0 0 0 0 0 0 0 0 0 0
0 0 0 0 0 0 0 0 0 0 0 0 0 0 0 0 0 0 0 0 0 0 0 0 0 0 0 0 0 0 0 0 0 0 0 0 0 0 0 0 0 0 0 0
0 0 0 0 0 0 0 0 0 0 0 0 0 0 0 0 0 0 0 0 0 0 0 0 0 0 0 0 0 0 0 0 0 0 0 0 0 0 0 0 0 0 0 0
0 0 0 0 0 0 0 0 0 0 0 0 0 0 0 0 0 0 0 0 0 0 0 0 0 0 0 0 0 0 0 0 0 0 0 0 0 0 0 0 0 0 0 0
0 0 0 0 0 0 0 0 0 0 0 0 0 0 0 0 0 0 0 0 0 0 0 0 0 0 0 0 0 0 0 0 0 0 0 0 0 0 0 0 0 0 0 0
0 0 0 0 0 0 0 0 0 0 0 0 0 0 0 0 0 0 0 0 0 0 0 0 0 0 0 0 0 0 0 0 0 0 0 0 0 0 0 0 0 0 0 0
0 0 0 0 0 0 0 0 0 0 0 0 0 0 0 0 0 0 0 0 0 0 0 0 0 0 0 0 0 0 0 0 0 0 0 0 0 0 0 0 0 0 0 0
0 0 0 0 0 0 0 0 0 0 0 0 0 0 0 0 0 0 0 0 0 0 0 0 0 0 0 0 0 0 0 0 0 0 0 0 0 0 0 0 0 0 0 0
0 0 0 0 0 0 0 0 0 0 0 0 0 0 0 0 0 0 0 0 0 0 0 0 0 0 0 0 0 0 0 0 0 0 0 0 0 0 0 0 0 0 0 0
0 0 0 0 0 0 0 0 0 0 0 0 0 0 0 0 0 0 0 0 0 0 0 0 0 0 0 0 0 0 0 0 0 0 0 0 0 0 0 0 0 0 0 0
0 0 0 0 0 0 0 0 0 0 0 0 0 0 0 0 0 0 0 0 0 0 0 0 0 0 0 0 0 0 0 0 0 0 0 0 0 0 0 0 0 0 0 0
0 0 0 0 0 0 0 0 0 0 0 0 0 0 0 0 0 0 0 0 0 0 0 0 0 0 0 0 0 0 0 0 0 0 0 0 0 0 0 0 0 0 0 0
0 0 0 0 0 0 0 0 0 0 0 0 0 0 0 0 0 0 0 0 0 0 0 0 0 0 0 0 0 0 0 0 0 0 0 0 0 0 0 0 0 0 0 0
0 0 0 0 0 0 0 0 0 0 0 0 0 0 0 0 0 0 0 0 0 0 0 0 0 0 0 0 0 0 0 0 0 0 0 0 0 0 0 0 0 0 0 0
0 0 0 0 0 0 0 0 0 0 0 0 0 0 0 0 0 0 0 0 0 0 0 0 0 0 0 0 0 0 0 0 0 0 0 0 0 0 0 0 0 0 0 0
0 0 0 0 0 0 0 0 0 0 0 0 0 0 0 0 0 0 0 0 0 0 0 0 0 0 0 0 0 0 0 0 0 0 0 0 0 0 0 0 0 0 0 0
0 0 0 0 0 0 0 0 0 0 0 0 0 0 0 0 0 0 0 0 0 0 0 0 0 0 0 0 0 0 0 0 0 0 0 0 0 0 0 0 0 0 0 0
0 0 0 0 0 0 0 0 0 0 0 0 0 0 0 0 0 0 0 0 0 0 0 0 0 0 0 0 0 0 0 0 0 0 0 0 0 0 0 0 0 0 0 0
0 0 0 0 0 0 0 0 0 0 0 0 0 0 0 0 0 0 0 0 0 0 0 0 0 0 0 0 0 0 0 0 0 0 0 0 0 0 0 0 0 0 0 0
0 0 0 0 0 0 0 0 0 0 0 0 0 0 0 0 0 0 0 0 0 0 0 0 0 0 0 0 0 0 0 0 0 0 0 0 0 0 0 0 0 0 0 0
0 0 0 0 0 0 0 0 0 0 0 0 0 0 0 0 0 0 0 0 0 0 0 0 0 0 0 0 0 0 0 0 0 0 0 0 0 0 0 0 0 0 0 0
0 0 0 0 0 0 0 0 0 0 0 0 0 0 0 0 0 0 0 0 0 0 0 0 0 0 0 0 0 0 0 0 0 0 0 0 0 0 0 0 0 0 0 0
0 0 0 0 0 0 0 0 0 0 0 0 0 0 0 0 0 0 0 0 0 0 0 0 0 0 0 0 0 0 0 0 0 0 0 0 0 0 0 0 0 0 0 0
Wind_Speed
2 4 7 13 12 5 5 6 6 7 4 4 9 13 15 9 7 11 12 13 14 18 14 8 9 9 8 8 8 9 10 9 9 6 5 5 4 4 4 4 6 7 8 9
3 7 12 5 3 3 3 4 6 7 3 4 8 14 14 12 11 14 16 17 17 15 9 9 10 10 11 11 11 11 11 11 9 6 4 4 5 4 4 4 5 7 7 8
12 7 5 7 5 6 6 8 8 7 5 4 6 12 8 10 9 10 13 14 14 15 14 11 12 12 12 13 13 11 11 11 9 9 7 7 6 5 3 4 4 5 7 7
9 4 5 6 8 10 8 9 8 5 2 6 1 11 7 9 8 11 16 15 15 13 11 9 12 13 15 14 10 10 11 10 10 10 11 12 8 6 6 5 6 6 7 7
9 6 7 9 10 12 7 3 5 3 4 5 2 8 12 5 8 13 15 14 12 9 8 9 12 14 12 10 10 10 10 10 10 10 11 10 8 6 7 8 9 8 7 7
5 4 6 7 3 7 6 6 5 4 3 8 7 9 17 8 11 10 11 9 7 6 4 4 5 7 8 9 9 10 11 10 10 10 10 9 12 13 13 12 11 8 6 6
4 5 5 4 6 3 5 6 1 3 2 11 5 9 16 7 9 9 10 9 6 3 1 2 6 8 10 11 11 11 12 11 11 11 10 9 12 15 16 15 13 12 9 7
6 8 10 9 11 11 10 12 11 9 8 7 4 14 12 7 7 8 9 8 5 3 2 4 6 8 10 11 11 11 12 11 12 11 10 9 10 9 8 10 11 11 9 8
10 9 3 6 4 13 8 8 7 5 1 5 10 11 11 7 10 11 10 7 7 5 4 4 5 7 9 10 11 11 11 10 11 11 10 10 10 9 9 9 8 7 8 9
7 6 2 1 3 2 7 8 6 6 6 8 10 9 8 6 12 9 7 7 7 4 4 5 6 7 7 8 8 8 9 10 10 10 10 9 10 10 10 10 10 10 11 11
7 6 2 2 9 11 8 7 6 6 6 7 7 13 9 11 8 6 6 6 6 5 6 6 6 6 6 6 7 8 9 9 9 10 10 10 10 10 10 10 11 11 11 12
7 5 6 8 6 4 7 10 11 8 7 6 6 15 3 7 5 5 6 5 3 4 4 5 6 6 7 8 8 9 9 10 10 10 10 10 10 11 11 11 11 11 12 11
8 7 4 3 3 3 6 7 11 8 6 8 10 15 1 1 2 3 4 4 3 3 4 5 6 7 8 9 10 10 10 10 10 10 11 11 12 12 13 12 12 12 12 12
7 8 10 11 6 7 7 8 10 10 9 12 18 20 9 4 4 5 5 5 4 5 6 7 8 9 9 10 10 11 11 11 11 12 12 13 13 14 13 13 13 13 13 13
5 7 10 12 8 5 8 10 13 18 19 16 18 21 23 10 10 9 7 6 6 7 8 10 11 11 11 11 11 11 11 12 13 13 14 14 12 12 12 12 12 12 12 12
7 7 7 13 14 11 12 14 18 20 19 22 21 29 22 8 8 9 9 9 10 10 11 12 12 12 13 15 14 13 13 13 13 14 14 13 13 13 13 13 13 13 12 11
5 6 7 12 9 8 18 21 20 15 14 13 23 33 19 10 11 13 12 12 13 12 12 13 14 15 15 16 15 16 14 12 13 13 12 13 14 14 14 14 14 14 13 12
9 9 7 9 10 21 14 10 18 21 21 19 18 20 18 15 12 11 11 11 12 12 12 11 11 12 12 11 11 10 10 12 13 13 13 13 14 14 14 14 14 13 11 12
14 12 10 8 15 14 9 7 9 14 19 22 25 26 25 16 7 12 10 10 12 11 10 9 9 9 8 10 11 11 12 12 13 14 14 14 15 15 15 15 15 12 11 10
13 14 13 13 14 11 10 6 6 7 13 13 15 20 20 10 10 16 4 6 8 6 5 5 4 4 7 8 11 13 13 14 15 15 13 13 14 15 15 15 12 9 10 10
6 11 17 19 18 10 7 2 7 9 11 4 6 11 11 11 12 6 1 1 2 3 3 2 2 3 5 7 11 12 12 14 11 10 10 11 12 12 12 11 10 10 9 10
7 7 9 9 13 11 5 6 9 7 2 2 2 3 5 6 4 2 1 1 2 2 2 1 1 2 3 7 10 10 10 8 9 10 11 11 11 10 9 11 10 10 11 11
9 9 6 8 8 4 4 6 4 2 3 3 3 3 2 3 3 2 1 1 1 2 2 2 2 3 3 4 7 8 7 9 10 11 11 11 11 10 11 12 12 11 11 10
6 3 5 7 7 7 6 5 4 3 4 3 3 3 3 3 3 2 1 1 1 2 2 2 3 3 2 2 4 5 7 9 11 11 11 10 11 11 10 10 10 11 12 11
6 3 5 8 7 6 6 6 5 4 3 3 2 2 2 2 3 2 2 1 0 1 2 2 2 3 2 3 3 4 7 9 9 10 9 10 10 10 10 10 10 11 11 13
7 8 8 8 6 6 6 5 5 5 6 5 3 2 2 2 3 1 0 0 1 2 2 3 3 3 3 3 4 3 4 7 9 8 8 8 7 8 8 8 6 15 13 17
Wind_Direction
78 115 196 207 202 188 171 189 230 248 244 204 237 253 264 260 241 254 255 248 243 243 243 210 195 187 184 186 183 176 170 162 153 145 144 135 124 108 93 96 116 127 134 135
86 234 224 196 175 193 192 228 253 275 256 225 263 263 258 253 237 235 243 246 244 243 237 209 193 187 191 190 187 181 178 172 171 157 137 125 119 108 97 97 101 115 126 130
189 219 188 161 171 188 217 212 228 244 319 294 294 285 244 253 241 249 247 247 248 241 237 214 196 196 193 195 191 185 180 173 167 149 129 114 100 98 109 114 109 113 121 123
230 224 140 168 193 177 235 217 217 234 278 284 295 288 252 236 251 253 254 252 252 250 239 213 195 196 199 197 185 179 174 171 164 157 158 158 159 157 161 147 132 119 116 122
229 190 179 198 201 177 212 164 175 189 207 278 221 264 274 199 242 252 252 252 255 255 237 216 200 198 193 181 177 174 170 167 163 166 169 169 155 134 133 132 131 124 118 118
247 200 202 210 171 166 133 88 75 61 91 266 205 214 272 187 211 234 246 251 265 279 265 225 188 172 169 167 170 170 170 168 166 170 172 172 155 146 146 149 145 139 134 124
263 236 218 155 108 128 143 119 42 310 263 251 185 220 257 223 223 223 243 260 272 292 268 185 167 170 172 174 175 174 172 170 171 174 173 168 162 161 161 160 158 154 152 148
209 252 207 190 176 171 189 169 180 206 228 266 229 238 255 247 263 264 261 266 279 273 228 200 186 180 180 179 178 176 175 172 173 175 171 163 161 165 165 163 160 161 156 146
197 242 233 202 187 153 172 214 180 157 220 277 258 266 291 268 265 256 257 265 263 253 223 204 187 183 181 181 182 180 176 172 174 173 165 162 163 164 160 154 147 144 138 137
177 233 257 149 111 199 164 155 133 172 205 245 267 256 250 235 242 254 261 262 263 239 212 197 190 185 183 182 178 176 175 175 171 169 169 167 165 163 156 154 153 149 146 143
180 208 233 172 193 185 157 174 179 177 183 191 267 266 214 216 230 244 256 262 260 233 210 197 190 184 177 173 175 178 176 171 171 171 169 164 163 158 156 158 157 153 149 149
190 189 229 228 228 206 196 188 172 184 213 204 238 265 201 212 235 243 263 274 266 228 202 189 182 177 180 184 184 185 182 179 177 172 167 166 162 160 162 162 159 155 153 153
162 180 221 259 237 204 217 209 200 189 171 197 222 261 328 149 251 250 258 272 253 214 196 187 186 192 195 194 192 191 188 183 175 169 167 166 167 168 168 165 162 160 157 153
177 190 212 222 208 178 203 210 200 192 213 227 232 251 255 248 266 266 251 245 228 215 208 203 206 207 204 200 198 195 192 183 175 172 172 175 176 175 172 166 165 164 161 159
198 223 228 246 248 211 211 213 208 213 221 229 244 250 253 223 234 249 251 244 233 226 219 215 214 212 206 203 202 198 193 185 178 176 179 180 174 170 166 165 165 163 163 162
203 230 232 249 242 234 239 233 224 226 230 238 254 260 258 235 227 241 239 235 238 235 229 223 218 213 210 207 203 198 195 187 179 182 183 174 169 168 168 167 164 164 163 160
213 218 234 254 248 245 242 232 227 225 219 219 239 253 263 250 235 234 236 234 237 237 232 225 219 215 213 208 200 199 193 178 179 182 178 173 171 171 170 166 166 169 168 163
225 230 242 255 243 244 245 218 214 225 232 226 236 253 256 247 244 239 232 232 240 239 237 232 224 220 215 203 195 187 175 176 181 181 178 175 172 171 168 168 172 172 167 169
217 226 238 243 250 257 264 234 194 211 238 230 234 246 256 258 278 267 238 225 236 241 239 235 225 218 202 190 182 171 173 176 181 184 182 177 174 171 171 175 175 170 167 169
215 216 230 239 246 242 243 235 192 178 244 240 226 239 251 252 254 266 245 221 242 254 252 244 228 198 187 180 167 170 176 180 190 189 181 173 172 173 176 176 169 163 166 167
204 217 229 239 246 248 248 199 132 189 243 259 218 230 237 227 234 264 329 285 280 283 284 259 191 182 180 164 162 172 179 192 186 167 160 164 171 173 171 164 160 159 161 161
213 221 227 235 243 244 206 148 192 230 280 266 255 244 237 240 259 279 302 315 339 341 355 44 117 135 139 154 161 174 187 173 149 150 157 163 165 163 161 161 161 163 165 167
216 213 218 221 237 264 207 216 240 231 241 247 243 250 240 250 258 256 269 322 3 14 15 33 104 107 110 147 161 171 168 148 147 154 162 164 162 164 165 167 167 168 173 178
250 228 227 252 260 263 262 259 260 247 244 257 252 246 221 226 237 237 242 262 14 38 39 51 96 108 111 131 146 155 147 148 152 160 163 163 165 169 170 174 175 179 183 187
240 230 238 252 264 280 268 249 248 247 239 248 267 264 248 230 237 221 216 215 112 58 51 71 95 108 109 113 116 124 142 149 155 159 161 164 170 173 177 183 190 191 195 197
219 216 222 244 239 232 257 264 237 231 235 225 220 263 281 238 233 219 243 11 74 73 69 77 81 90 91 95 96 105 138 150 153 157 164 170 173 175 178 182 194 213 208 215